Home > Weather > Niagara Falls > Past weeks

Flag for Canada Weather for the Past 2 Weeks in Niagara Falls, Ontario, Canada

Now
59 °F

Partly sunny.


Feels Like: 56 °F
Forecast: 47 / 60 °F
Wind: 15 mph from Northeast

Location: Niagara Falls International Airport

Current Time: May 5, 2016 at 12:14:28 PM

Latest Report: May 5, 2016 at 10:53 AM


Visibility: 10 mi

Pressure: 29.81 "Hg

Humidity: 62%

Dew Point: 46 °F

Location of Niagara FallsLocation

Historic Weather in Niagara Falls — Graph

°F

Niagara Falls Temperature Yesterday

Maximum temperature yesterday: 64 °F (at 1:53 PM)
Minimum temperature yesterday: 43 °F (at 4:53 AM)
Average temperature yesterday: 54 °F

High & Low Weather Summary for the Past Weeks

 TemperatureHumidityPressure
High69 °F (Apr 21, 11:53 AM)90% (May 2, 4:00 AM)30.35 "Hg (May 2, 4:00 AM)
Low30 °F (Apr 27, 3:53 AM)22% (Apr 20, 2:53 PM)29.67 "Hg (May 4, 3:53 PM)
Average49 °F61%29.99 "Hg
* Reported Apr 20 10:53 AM — May 5 10:53 AM, Niagara Falls, Weather by CustomWeather, © 2016

Note: Actual official high and low records may vary slightly from our data, if they occured in-between our weather recording intervals... More about our weather records

Advertising

Niagara Falls Weather History for the Previous 24 Hours

Scroll right to see more
 ConditionsComfort  
Time TempWeatherWind HumidityBarometerVisibility
10:53 AM
Thu, May 5
59 °FPartly sunny.15 mph62%29.81 "Hg10 mi
9:53 AM55 °FBroken clouds.10 mph72%29.80 "Hg10 mi
8:53 AM51 °FLight rain. Partly sunny.7 mph83%29.80 "Hg7 mi
7:53 AM49 °FMore clouds than sun.9 mph84%29.78 "Hg7 mi
7:00 AM48 °FFog.10 mph86%29.76 "Hg6 mi
5:53 AM47 °FLow clouds.9 mph86%29.75 "Hg10 mi
5:04 AM46 °FPassing clouds.10 mph86%29.73 "Hg8 mi
4:53 AM46 °FPassing clouds.9 mph86%29.74 "Hg8 mi
3:53 AM47 °FMostly cloudy.9 mph86%29.73 "Hg8 mi
2:53 AM47 °FPassing clouds.8 mph83%29.72 "Hg10 mi
1:53 AM50 °FPassing clouds.7 mph77%29.72 "Hg10 mi
12:53 AM50 °FOvercast.7 mph80%29.73 "Hg10 mi
11:53 PM
Wed, May 4
49 °FPassing clouds.5 mph77%29.74 "Hg10 mi
10:53 PM51 °FPassing clouds.7 mph71%29.74 "Hg10 mi
9:53 PM53 °FPassing clouds.10 mph66%29.73 "Hg10 mi
8:53 PM54 °FBroken clouds.9 mph64%29.71 "Hg10 mi
7:53 PM58 °FBroken clouds.8 mph54%29.70 "Hg10 mi
6:53 PM60 °FBroken clouds.13 mph49%29.69 "Hg10 mi
5:53 PM63 °FBroken clouds.14 mph41%29.68 "Hg10 mi
4:53 PM62 °FBroken clouds.13 mph44%29.67 "Hg10 mi
3:53 PM61 °FBroken clouds.14 mph46%29.67 "Hg10 mi
2:53 PM62 °FBroken clouds.15 mph44%29.68 "Hg10 mi
1:53 PM64 °FBroken clouds.10 mph49%29.69 "Hg10 mi
12:53 PM63 °FBroken clouds.No wind47%29.70 "Hg10 mi
Weather by CustomWeather, © 2016

See weather overviewHow to use our weather pages